www.pogodaiklimat.ru

Погода и климат >> Архив погоды >> Россия >> Чукотка >> Уэлен


АРХИВ ПОГОДЫ в Уэлене

Время (UTC), дата Ветер
(напр.,м/с)
 
Видим.   Явления Облачность Т
(С)
Тd
(С)
f
(%)
Тe
(С)
Тes
(С)
Комфортность P
(гПа)
Po
(гПа)
Тmin
(С)
Tmax
(С)
R
(мм)
R24
(мм)
S
(см)
15 12.07 СВ 2
{2}
20 км 10/0
[Ci fib]
+10.2 +9.0 92 +9 +9 1007.4 1006.5
18 12.07 штиль 0
{3}
50 км 10/0
[Cs]
+12.1 +9.5 84 +12 +16 1006.7 1005.8 +7.2
21 12.07 С 1
{3}
50 км 9/0
[Ci fib]
+13.6 +8.2 70 +14 +23 1006.3 1005.4
00 13.07 С 2
{3}
50 км 10/1 600 м
[Cu hum Ci fib]
+13.4 +8.9 74 +13 +21 1005.6 1004.8
03 13.07 С 1
{3}
50 км 6/1 600 м
[Cu hum Ci fib]
+16.4 +8.4 59 +17 +23 1004.9 1004.1
06 13.07 Ю 7
{8}
50 км 4/1 600 м
[Sc Ci fib]
+16.8 +8.6 58 +16 +16 1004.4 1003.6 +19.1
09 13.07 Ю 8
{10}
50 км 6/0
[Ci fib]
+13.8 +10.5 80 +11 +11 1003.9 1003.1
12 13.07 Ю 12-13
{14}
600 м туман ?/? +9.8 +9.8 100 +5 +5 1003.7 1002.8
15 13.07 ЮЗ 14-15
{16}
700 м туман ?/? +9.6 +9.6 100 +4 +4 1003.8 1002.9
18 13.07 ЮЗ 13-15
{17}
900 м туман 8/0
[Ci fib]
+10.4 +10.4 100 +5 +5 1004.1 1003.2 +9.2
21 13.07 ЮЗ 14-15
{17}
9000 м дымка {туман} 8/5 100 м
[St Ci fib]
+10.6 +10.1 97 +5 +5 1004.6 1003.7
00 14.07 Ю 14-15
{18}
18 км {туман} 10/4 200 м
[St Ci fib]
+11.6 +9.7 88 +7 +7 1004.9 1004.1
03 14.07 Ю 13-14
{18}
20 км 10/1 200 м
[St Ci fib]
+12.2 +9.3 82 +8 +8 1005.5 1004.7
06 14.07 Ю 14-15
{17}
18 км 10/3 100 м
[St Ci fib]
+10.8 +9.7 93 +6 +6 1005.8 1004.9 +12.5
09 14.07 Ю 14-15
{17}
6000 м дымка 10/6 100 м
[St Ci fib]
+10.1 +9.5 96 +5 +5 1006.2 1005.3
12 14.07 Ю 14-15
{17}
6000 м дымка 10/9 100 м
[St Ci fib]
+9.9 +9.3 96 +4 +4 1007.0 1006.1
15 14.07 ЮЗ 13-15
{16}
900 м туман 10/0
[Ci fib]
+9.8 +9.8 100 +4 +4 1007.0 1006.1
18 14.07 Ю 11-13
{15}
6000 м дымка {туман} 10/9 100 м
[St Ci fib]
+10.2 +9.5 95 +5 +5 1007.7 1006.8 +9.8
21 14.07 Ю 9-10
{15}
20 км 10/9 200 м
[St Ci fib]
+10.3 +9.0 92 +6 +6 1008.0 1007.1
00 15.07 Ю 11-12
{13}
20 км 10/3 300 м
[St Ci fib]
+11.5 +10.3 92 +7 +7 1007.6 1006.7
03 15.07 Ю 12-13
{14}
15 км 10/3 300 м
[St Ci fib]
+10.9 +9.9 94 +6 +6 1006.8 1005.9
06 15.07 ЮЗ 11-12
{14}
20 км 10/1 300 м
[St Cs]
+12.5 +10.2 86 +9 +9 1005.6 1004.8 +12.5
09 15.07 ЮЗ 10-10
{13}
20 км 10/1 300 м
[St Cs]
+11.8 +10.4 91 +8 +8 1005.6 1004.8
12 15.07 Ю 9-10
{12}
20 км 9/0
[Ci fib]
+10.6 +9.4 92 +6 +6 1005.4 1004.5
15 15.07 Ю 7
{11}
20 км 9/0
[Ci fib]
+10.3 +9.0 92 +7 +7 1004.8 1003.9
18 15.07 ЮЗ 8
{10}
20 км 8/0
[Ci fib]
+12.0 +10.3 89 +9 +9 1004.1 1003.3 +9.8
21 15.07 ЮЗ 7
{9}
50 км 10/0
[Ci fib]
+16.0 +10.3 69 +15 +17 1004.0 1003.1
00 16.07 ЮЗ 8
{10}
50 км 10/0
[Ci]
+16.0 +9.7 66 +14 +16 1003.6 1002.7
03 16.07 Ю 10-12
{13}
50 км 10/0
[Ci]
+15.1 +10.4 73 +13 +13 1002.8 1002.0
06 16.07 Ю 8
{13}
50 км 10/0
[Ci fib]
+14.3 +10.5 78 +12 +12 1002.5 1001.7 +16.9
09 16.07 Ю 7
{11}
50 км 10/3 1000 м
[Sc Ci fib]
+13.2 +9.9 80 +11 +11 1002.1 1001.3
12 16.07 ЮЗ 5
{8}
20 км 10/3 600 м
[Cu Sc Ci fib]
+11.0 +9.4 90 +8 +8 1002.3 1001.4
15 16.07 Ю 3
{6}
20 км 10/3 1000 м
[Sc Ci fib]
+10.4 +9.0 91 +8 +8 1002.3 1001.4
18 16.07 штиль 0
{4}
50 км 10/3 1000 м
[Sc Ci fib]
+12.9 +10.6 86 +12 +15 1002.3 1001.5 +10.3
21 16.07 С 2
{4}
50 км 9/0
[Ci fib]
+11.4 +8.1 80 +10 +18 1002.9 1002.1
00 17.07 С 3
{5}
50 км 10/6 300 м
[Sc Ci fib]
+10.8 +7.7 81 +9 +12 1003.6 1002.7
03 17.07 В 4
{6}
20 км 10/8 300 м
[Sc Ci fib]
+11.2 +9.2 87 +9 +10 1003.7 1002.8
06 17.07 СВ 3
{5}
16 км 10/10 200 м
[St]
+9.6 +8.4 92 +7 +7 1004.8 1003.9 +13.8
09 17.07 СВ 3
{5}
700 м туман {ливн. осадки} ?/? +9.4 +9.4 100 +7 +7 1005.4 1004.5
12 17.07 СВ 4
{6}
600 м слаб. ливневой дождь {туман} туман ?/? +9.0 +9.0 100 +6 +6 1005.8 1004.9
15 17.07 С 3
{5}
800 м туман {ливн. осадки} ?/? +9.0 +9.0 100 +6 +6 1006.4 1005.5
18 17.07 С 3
{4}
600 м туман {ливн. осадки} ?/? +8.3 +8.3 100 +5 +5 1007.2 1006.3 +8.0 5
21 17.07 ЮЗ 2
{3}
900 м туман 10/9 600 м
[Sc Ci fib]
+9.3 +9.3 100 +7 +8 1007.7 1006.8
00 18.07 СВ 2
{3}
20 км {туман} 10/6 300 м
[St Ac trans Ci fib]
+10.4 +9.0 91 +9 +11 1008.2 1007.3
03 18.07 С 4
{5}
20 км 10/8 600 м
[Sc Ci fib]
+11.6 +8.8 83 +9 +10 1008.2 1007.3
06 18.07 ЮЗ 11-13
{13}
20 км 10/3 200 м
[St Ac trans Ci fib]
+11.8 +10.9 94 +8 +8 1007.3 1006.4 +13.2
09 18.07 Ю 10-12
{13}
6000 м дымка 10/6 100 м
[St Ac trans Ci fib]
+10.0 +9.4 96 +5 +5 1007.0 1006.1
12 18.07 Ю 9-10
{13}
900 м туман 10/9 1000 м
[Sc Ci fib]
+9.3 +9.3 100 +5 +5 1006.2 1005.3
15 18.07 Ю 11-12
{14}
6000 м в посл. час туман 9/9 100 м
[St]
+11.1 +10.5 96 +7 +7 1006.1 1005.2
18 18.07 Ю 5
{12}
7000 м дымка {туман} 10/8 100 м
[St Ac trans Ci fib]
+9.9 +9.3 96 +7 +7 1007.0 1006.1 +9.3
21 18.07 С 2
{6}
20 км 9/9 300 м
[Cu Sc]
+12.0 +10.6 91 +11 +12 1009.1 1008.2
00 19.07 С 6
{8}
14 км 10/10 200 м
[St]
+11.0 +9.4 90 +8 +8 1011.4 1010.5
03 19.07 С 5
{7}
20 км 9/9 200 м
[St]
+10.8 +8.8 87 +8 +8 1013.3 1012.4
06 19.07 СВ 5
{8}
20 км {туман} 9/9 200 м
[St]
+9.9 +7.8 87 +7 +7 1014.2 1013.3 +12.3
09 19.07 В 6
{8}
20 км 9/9 300 м
[Sc]
+9.6 +7.3 86 +6 +6 1015.2 1014.3
12 19.07 В 5
{8}
20 км 9/9 600 м
[Sc]
+9.0 +6.7 85 +6 +6 1015.1 1014.2

 

Местоположение метеостанции Уэлен (Чукотка, Россия): широта 66.16 долгота -169.00 высота над уровнем моря 7 м.

В архиве по умолчанию представлена погода в Уэлене за последнюю неделю. Архивные данные за месяц целиком и за предыдущие месяцы, начиная с января 2011 года, Вы можете получить, выбрав интересующий диапазон дат из раскрывающегося списка и нажав кнопку "Ввод!".


*Определитесь, кто Вы:
робот инопланетянин человек

Внимание! Время в таблицах - всемирное. Для получения местного времени необходимо прибавить поправку, которая равна 12 ч.

Смотрите также архив погоды в соседних городах и на ближайших метеорологических станциях:

Погода на Мысе Ванкарем (Чукотка, Россия) (320 км)
Погода в Эгвекиноте (Чукотка, Россия) (448 км)
Погода на Мысе Шмидта (Чукотка, Россия) (520 км)
Погода на Острове Врангеля (Чукотка, Россия) (648 км)

Пояснения к столбцам:

Ветер - указаны скорость ветра в м/с - средняя за 10 мин, порывы в срок и между сроками (в фигурных скобках) и направление, откуда дует ветер: С - северный, СВ - северо-восточный, В - восточный, ЮВ - юго-восточный, Ю - южный, ЮЗ - юго-западный, З - западный, СЗ - северо-западный.
Видимость - горизонтальная дальность видимости в метрах или километрах. При видимости от 1 до 10 км при отсутствии осадков обычно наблюдается дымка, при ухудшении видимости до 1 км и менее - туман. В сухую погоду видимость может ухудшаться дымом, пылью или мглою.
Явления - указаны атмосферные явления, наблюдавшиеся в срок или в последний час перед сроком; фигурными скобками обозначены явления, наблюдавшиеся между сроками (за 1-3 часа до срока); квадратными скобками обозначены град или гололедные отложения с указанием их диаметра в мм.
Облачность - указаны через наклонную черту общая и нижняя облачность в баллах и высота нижней границы облаков в метрах; квадратными скобками обозначены формы облаков: Ci - перистые, Cs - перисто-слоистые, Cc - перисто-кучевые, Ac - высококучевые, As - высокослоистые, Sc - слоисто-кучевые, Ns - слоисто-дождевые, Cu - кучевые, Cb - кучево-дождевые. Подробнее классификацию облаков см. в Атласе облаков (PDF).
T - Температура воздуха - температура, измеренная на высоте 2 м над землей.
Td - Температура точки росы - температура, при понижении до которой содержащийся в воздухе водяной пар достигнет насыщения.
f - Относительная влажность воздуха - влажноcть воздуха, измеренная на высоте 2 м над землей.
Te - Эффективная температура - температура, которую ощущает одетый по сезону человек в тени. Характеристика душности погоды. При расчете учитывается влияние влажности воздуха и скорости ветра на теплоощущения человека.
Tes - Эффективная температура на солнце - температура, которую ощущает человек, с поправкой на солнечный нагрев. Характеристика знойности погоды. Зависит от высоты солнца над горизонтом, облачности и скорости ветра. Ночью, в пасмурную погоду, а также при ветре 12 м/с и более поправка равна нулю.
P - Атмосферное давление - приведенное к уровню моря атмосферное давление.
Po - Атмосферное давление - измеренное на уровне метеостанции атмосферное давление.
Tmin - Минимальная температура - минимум температуры воздуха на высоте 2 м над землей.
Tmax - Максимальная температура - максимум температуры воздуха на высоте 2 м над землей.
R - Количество осадков - Количество выпавших осадков за период времени, мм. При наведении курсора мыши на число - период времени, за который выпало указанное количество осадков.
R24 - Количество осадков - Количество выпавших осадков за 24 часа, мм.
S - Снежный покров - Высота снежного покрова, см. При наведении курсора мыши на число - состояние снежного покрова и степень покрытия местности в баллах.